Location: Newark
(25.0000°N, 73.5000°E)
Time: 01:11:37
(UTC+00:00)

NOAA 15 - Pass Details

Date: 22 February 2020
Orbit: 797 x 813 km, 98.7° (Epoch: 06 April)

Event Time Altitude Azimuth Distance (km) Brightness Sun altitude
Rises 14:04:29 0° 174° (S) 3,312 7.8 -14.4°
Reaches altitude 10° 14:06:50 10° 177° (S) 2,385 7.1 -14.9°
Maximum altitude 14:12:03 65° 258° (WSW) 890 5.1 -16.1°
Drops below altitude 10° 14:17:20 10° 340° (NNW) 2,401 7.3 -17.3°
Sets 14:19:42 0° 343° (NNW) 3,335 8.0 -17.9°
